This is the latest recevied weather packets stored in our database for station/object OK1KZE-6. If no packets are shown the sender has not sent any weather packets the latest 10 day(s).
| Time | Temp. | Humidity | Pressure | Rain* | Wind** | Luminosity | Snow |
|---|---|---|---|---|---|---|---|
| 1777950608 | 13.89° C | 80% | 1011.3 hPa | - | - | - | - |
| 1777950308 | 13.33° C | 85% | 1011.5 hPa | - | - | - | - |
| 1777950008 | 13.89° C | 84% | 1011.5 hPa | - | - | - | - |
| 1777949707 | 13.89° C | 83% | 1011.5 hPa | - | - | - | - |
| 1777949408 | 13.89° C | 81% | 1011.6 hPa | - | - | - | - |
| 1777949108 | 14.44° C | 79% | 1011.5 hPa | - | - | - | - |
| 1777948808 | 14.44° C | 79% | 1011.6 hPa | - | - | - | - |
| 1777948507 | 14.44° C | 77% | 1011.5 hPa | - | - | - | - |
| 1777948208 | 15° C | 72% | 1011.5 hPa | - | - | - | - |
| 1777947907 | 15.56° C | 72% | 1011.6 hPa | - | - | - | - |
| 1777947607 | 15.56° C | 71% | 1011.4 hPa | - | - | - | - |
| 1777947307 | 15.56° C | 71% | 1011.5 hPa | - | - | - | - |
| 1777947007 | 15.56° C | 71% | 1011.3 hPa | - | - | - | - |
| 1777946708 | 15.56° C | 70% | 1011.4 hPa | - | - | - | - |
| 1777946407 | 15.56° C | 71% | 1011.6 hPa | - | - | - | - |
| 1777946107 | 15.56° C | 71% | 1011.4 hPa | - | - | - | - |
| 1777945808 | 15.56° C | 72% | 1011.6 hPa | - | - | - | - |
| 1777945508 | 15° C | 72% | 1011.7 hPa | - | - | - | - |
| 1777945207 | 15° C | 73% | 1011.6 hPa | - | - | - | - |
| 1777944907 | 15° C | 73% | 1011.7 hPa | - | - | - | - |
| 1777944607 | 15.56° C | 73% | 1011.6 hPa | - | - | - | - |
| 1777944308 | 15° C | 73% | 1011.6 hPa | - | - | - | - |
| 1777944007 | 15.56° C | 73% | 1011.7 hPa | - | - | - | - |
| 1777943708 | 15.56° C | 73% | 1012 hPa | - | - | - | - |
| 1777943408 | 15.56° C | 72% | 1011.9 hPa | - | - | - | - |
* Rain since midnight (hover to see other rain measurements)
** Current wind speed in m/s (hover to see current wind gust speed)